EHI
0 0 0 0 0 0 0 0 0 0 1 4 8 10 15 25 36 41 43 44 43 42 42 41 39 33 27 21 18 17 16 16 17 17 15 13 10 5 2 2 2 2 2 2
0 0 0 0 0 0 0 0 0 0 2 7 11 13 18 25 32 36 39 42 45 45 43 42 40 36 32 26 22 21 20 19 18 18 17 14 10 6 4 3 3 2 2 2
0 0 0 0 0 0 0 0 0 2 5 10 15 19 23 27 29 30 34 42 47 47 45 43 41 40 37 32 27 25 24 22 20 19 18 16 11 8 7 5 4 4 3 2
0 0 0 0 0 0 0 0 1 4 8 13 18 24 26 28 28 28 33 40 46 47 47 46 43 41 39 35 30 28 26 24 21 19 19 16 12 10 9 6 4 4 3 3
0 0 0 0 0 1 1 0 1 4 8 14 19 21 24 28 29 28 30 37 43 47 51 51 45 40 37 34 30 27 26 24 21 19 17 14 12 12 10 7 4 3 3 3
0 0 0 0 0 1 1 1 3 6 9 12 16 19 24 30 30 28 29 36 43 48 52 51 46 40 36 33 29 25 23 22 19 16 14 12 11 11 10 7 4 3 3 3
0 0 0 0 1 2 3 4 6 9 12 14 17 23 29 32 31 29 32 37 43 46 45 44 43 39 34 30 25 21 20 19 16 13 12 12 11 11 9 7 4 3 3 3
0 0 2 3 4 6 7 10 11 13 15 19 23 28 29 30 31 30 32 35 37 38 36 35 35 33 28 24 20 17 17 16 14 11 10 11 11 10 8 7 5 4 3 3
2 3 6 8 9 11 13 15 16 14 15 19 23 24 23 24 27 27 28 28 27 28 28 27 27 24 21 18 16 14 13 13 12 10 10 10 10 9 7 6 4 3 3 3
8 8 9 10 11 12 14 16 16 15 14 15 17 17 18 19 22 23 22 21 21 22 21 21 21 19 16 14 12 11 10 10 10 10 10 10 10 9 6 5 4 3 3 3
10 11 11 11 10 10 10 12 14 15 14 14 15 15 16 18 20 20 17 17 19 20 18 17 17 16 13 11 10 9 8 8 9 9 9 9 9 8 5 3 2 2 2 2
8 9 10 10 8 8 8 9 12 15 16 16 16 15 14 16 18 17 14 14 16 18 17 16 15 14 12 10 9 8 7 7 7 7 7 7 7 5 3 1 1 0 0 1
5 4 5 6 5 6 7 8 11 14 16 17 17 16 14 15 15 14 12 12 15 16 16 14 12 11 9 8 8 7 6 6 5 5 5 5 5 4 2 1 0 0 0 0
2 2 2 2 2 4 6 8 10 12 12 14 15 14 13 12 11 10 9 10 12 13 13 11 9 7 6 6 6 5 4 4 4 3 4 5 5 4 3 1 0 0 0 0
0 1 1 0 0 2 5 7 8 8 8 9 10 9 9 8 7 7 6 6 6 7 8 6 5 5 5 5 4 3 3 3 3 3 4 4 3 2 1 1 0 0 0 0
0 0 0 0 1 2 4 4 4 4 4 5 5 5 4 4 4 4 3 2 2 2 3 2 2 3 4 3 3 2 2 2 2 2 3 2 1 1 0 0 0 0 0 0
0 0 0 0 1 2 2 2 1 1 2 2 3 3 3 3 3 2 1 0 0 0 0 0 0 1 1 1 1 1 1 1 1 1 1 1 0 0 0 0 0 0 0 0
0 0 0 0 1 1 1 1 0 0 0 1 1 2 2 2 2 1 0 0 0 0 0 0 0 0 0 0 0 0 0 0 0 0 0 0 0 0 0 0 0 0 0 0
0 0 0 0 0 0 0 0 0 0 0 0 0 1 1 1 1 0 0 0 0 0 0 0 0 0 0 0 0 0 0 0 0 0 0 0 0 0 0 0 0 0 0 0
0 0 0 0 0 0 0 0 0 0 0 0 0 0 0 0 0 0 0 0 0 0 0 0 0 0 0 0 0 0 0 0 0 0 0 0 0 0 0 0 0 0 0 0
0 0 0 0 0 0 0 0 0 0 0 0 0 0 0 0 0 0 0 0 0 0 0 0 0 0 0 0 0 0 0 0 0 0 0 0 0 0 0 0 0 0 0 0
0 0 0 0 0 0 0 0 0 0 0 0 0 0 0 0 0 0 0 0 0 0 0 0 0 0 0 0 0 0 0 0 0 0 0 0 0 0 0 0 0 0 0 0
0 0 0 0 0 0 0 0 0 0 0 0 0 0 0 0 0 0 0 0 0 0 0 0 0 0 0 0 0 0 0 0 0 0 0 0 0 0 0 0 0 0 0 0
0 0 0 0 0 0 0 0 0 0 0 0 0 0 0 0 0 0 0 0 0 0 0 0 0 0 0 0 0 0 0 0 0 0 0 0 0 0 0 0 0 0 0 0
0 0 0 0 0 0 0 0 0 0 0 0 0 0 0 0 0 0 0 0 0 0 0 0 0 0 0 0 0 0 0 0 0 0 0 0 0 0 0 0 0 0 0 0
0 0 0 0 0 0 0 0 0 0 0 0 0 0 0 0 0 0 0 0 0 0 0 0 0 0 0 0 0 0 0 0 0 0 0 0 0 0 0 0 0 0 0 0
0 0 0 0 0 0 0 0 0 0 0 0 0 0 0 0 0 0 0 0 0 0 0 0 0 0 0 0 0 0 0 0 0 0 0 0 0 0 0 0 0 0 0 0
Wind_Speed
8 3 7 11 12 13 14 12 10 7 6 3 2 3 4 6 7 8 8 9 9 8 8 8 7 7 6 6 6 6 5 5 5 4 4 4 4 3 3 2 2 2 2 2
9 7 8 9 10 11 12 10 10 8 4 0 1 2 5 6 7 8 8 9 9 9 9 9 8 8 7 7 6 6 6 5 5 5 5 4 4 4 4 3 3 3 2 3
10 9 9 11 10 10 9 7 8 8 3 1 1 2 4 5 7 7 8 8 9 8 8 8 8 8 8 8 7 7 6 6 5 5 5 5 5 5 4 4 4 4 3 3
7 8 13 4 3 6 7 6 5 4 2 2 1 1 2 3 4 5 6 7 8 7 7 8 8 8 8 8 8 7 7 6 6 6 6 6 5 5 5 5 4 4 4 5
8 12 10 5 4 5 7 6 2 3 2 1 2 4 4 2 2 3 4 6 6 6 7 7 8 8 8 8 8 7 7 6 6 6 6 6 5 5 5 5 5 5 5 6
8 11 11 5 5 2 6 7 1 1 2 2 4 5 4 4 3 4 4 5 6 6 7 7 7 8 8 8 8 7 7 7 6 6 6 6 6 6 5 5 6 6 6 6
11 10 6 4 3 5 8 1 4 2 1 1 1 3 4 4 4 4 5 6 6 6 6 6 7 8 8 8 7 7 7 7 7 6 7 7 6 5 6 6 6 6 7 6
10 11 5 5 2 2 3 5 3 3 2 2 3 5 5 5 5 5 6 6 6 6 6 6 6 7 8 7 7 7 7 7 7 6 6 6 7 6 6 6 7 6 6 6
3 1 6 3 3 4 3 3 3 3 3 2 3 4 5 5 5 5 5 5 5 6 6 5 5 6 7 7 8 8 8 8 7 7 6 6 6 7 6 5 5 5 5 5
2 1 2 2 3 3 3 3 3 3 2 2 3 4 5 5 5 5 5 5 5 6 6 5 5 5 6 7 7 8 8 8 7 7 6 6 4 4 4 4 4 5 5 5
3 1 1 2 3 4 3 3 3 3 3 2 3 4 5 5 5 5 4 4 5 5 6 6 5 5 6 7 8 8 8 8 7 7 7 6 6 5 3 4 3 3 4 5
2 1 2 2 3 3 3 3 3 3 3 3 3 4 5 5 5 5 5 4 5 6 6 6 6 6 5 6 7 8 8 7 6 6 6 6 7 7 12 9 10 9 8 5
3 3 3 2 2 2 2 3 3 3 3 3 4 4 5 5 5 5 5 5 5 6 6 6 6 6 5 6 7 7 7 7 6 6 6 6 6 7 7 8 11 11 9 9
2 3 3 2 1 1 2 2 3 4 4 4 4 5 5 5 5 5 5 5 5 6 6 6 6 6 5 5 6 7 7 7 6 5 6 6 6 6 6 7 6 6 7 8
3 3 3 1 1 1 1 2 3 4 4 4 4 4 5 6 6 6 5 6 6 7 7 6 6 6 5 6 7 7 6 5 5 5 5 6 6 6 6 7 6 7 6 6
3 2 3 3 3 2 2 2 3 3 4 4 4 4 5 6 6 6 6 5 6 7 6 6 6 6 5 6 7 6 6 8 7 6 6 6 6 6 6 6 6 6 6 6
4 4 3 3 3 2 2 2 2 3 3 4 4 5 6 7 7 7 6 6 6 7 6 6 7 6 6 6 6 6 7 8 8 6 6 6 6 6 6 6 6 5 5 5
5 4 4 4 3 3 3 3 3 3 3 4 5 6 6 6 6 7 7 7 7 7 7 6 6 7 7 6 5 6 6 6 5 6 6 5 5 5 6 5 6 6 6 6
4 3 2 1 2 3 3 3 4 4 4 4 5 6 6 6 6 7 7 7 7 7 6 7 7 7 8 8 6 5 6 7 6 6 6 6 5 5 5 5 5 5 5 6
2 2 2 3 3 3 4 4 5 5 5 5 6 7 6 6 7 7 8 7 5 5 7 6 7 7 7 7 5 6 6 6 6 6 6 5 5 5 5 5 5 5 5 5
3 4 4 4 5 5 5 5 5 6 5 5 6 7 7 7 7 7 7 7 6 6 7 6 5 5 6 5 5 5 6 6 6 5 5 5 5 5 4 4 4 4 4 4
4 5 5 5 6 6 5 5 6 6 6 7 7 8 8 8 7 7 7 5 6 5 5 5 5 6 5 5 5 5 5 5 5 4 4 4 4 4 4 4 4 4 4 4
4 5 6 6 7 7 7 6 6 6 7 7 7 7 7 6 5 6 6 5 6 4 4 6 7 5 3 4 4 5 6 5 4 4 4 4 4 4 4 4 4 4 4 4
5 6 6 7 7 8 8 7 7 7 8 7 7 7 7 6 6 6 7 7 6 5 6 7 6 4 3 3 4 4 4 3 3 3 3 3 3 3 3 3 3 3 4 4
6 7 7 7 7 6 7 8 9 8 8 7 8 7 6 5 6 7 7 8 7 6 7 7 4 3 3 4 4 4 3 2 1 1 2 2 2 3 3 3 3 3 3 3
6 6 6 6 6 5 5 6 6 6 6 7 6 6 6 6 8 7 6 8 8 6 6 6 5 4 3 4 3 3 2 3 3 2 2 2 2 2 2 2 3 3 3 4
8 7 6 6 6 6 6 6 6 6 6 7 7 7 7 7 7 7 7 7 6 5 5 4 4 3 2 3 3 2 2 2 1 1 1 2 1 2 2 3 3 3 3 4
Wind_Direction
250 240 213 212 208 206 222 243 253 248 252 231 201 201 185 174 170 169 168 169 169 168 164 165 163 163 159 156 155 151 148 150 152 155 154 153 150 145 141 142 140 128 126 123
221 214 218 221 214 211 221 234 245 252 241 96 81 160 171 177 178 177 175 174 171 171 170 171 169 168 162 160 157 153 152 153 151 148 143 139 136 135 129 124 118 112 113 117
216 203 215 219 214 215 214 223 242 246 246 197 182 169 180 182 185 182 176 172 172 173 174 174 172 169 165 161 159 157 152 152 149 141 135 129 129 127 121 114 110 108 107 106
219 199 226 202 177 225 223 221 240 266 276 263 229 166 175 178 181 178 173 169 168 167 164 165 163 162 159 157 159 156 150 146 143 139 131 128 128 124 119 115 109 104 99 96
221 217 218 175 181 210 218 211 220 251 240 174 127 170 139 112 146 155 160 158 158 158 154 150 151 154 156 157 157 156 151 147 144 142 137 135 133 125 119 118 114 110 104 99
223 234 227 180 141 187 234 210 111 271 236 197 203 221 122 96 107 121 130 137 139 139 137 139 144 150 154 156 155 153 147 142 139 139 138 135 132 127 123 119 115 111 99 94
225 231 227 79 124 196 224 147 38 17 351 224 247 7 79 98 98 106 114 122 127 129 130 133 142 146 147 146 144 140 137 134 130 134 134 130 127 123 123 118 112 107 102 95
226 232 204 71 182 226 26 22 23 26 29 49 68 82 98 103 105 109 112 117 123 123 120 125 137 141 139 136 133 134 133 129 128 132 133 130 127 123 125 126 122 116 110 103
264 326 61 48 30 28 6 3 18 18 27 75 103 101 102 102 101 101 103 107 115 118 114 115 129 139 139 135 136 134 131 129 127 127 125 127 131 135 136 136 134 130 128 121
235 142 62 57 50 45 30 16 10 19 34 94 109 107 108 104 99 100 102 112 118 118 116 114 117 124 130 132 134 134 133 132 131 128 123 118 121 129 133 137 138 134 131 125
230 228 226 100 53 38 32 30 37 46 52 78 111 116 114 110 108 107 106 108 116 118 119 118 117 117 125 136 139 136 132 131 130 126 121 109 88 59 77 72 72 124 134 137
265 41 317 23 19 12 13 27 39 53 65 80 104 113 117 113 111 112 109 108 108 110 114 115 117 117 124 138 142 140 138 137 135 133 130 128 118 93 55 60 67 65 59 78
312 327 330 326 333 346 4 30 41 54 79 92 97 110 113 110 107 109 110 111 109 109 110 113 115 117 124 135 142 143 140 138 136 136 137 136 131 128 118 83 68 66 69 77
283 274 257 258 299 30 54 64 71 73 81 93 100 105 107 107 107 107 105 105 106 106 107 109 111 110 117 126 131 135 135 128 135 138 137 134 132 131 131 131 124 105 84 88
264 261 253 245 188 141 123 119 107 96 91 94 105 112 117 118 116 108 102 104 106 104 101 103 102 101 107 119 124 129 129 129 129 127 129 128 129 131 131 130 127 127 124 116
282 261 230 207 195 175 158 141 123 109 105 104 105 109 114 114 115 113 110 112 113 108 106 105 103 104 110 117 122 121 114 112 122 128 127 131 135 135 134 133 133 135 140 140
266 248 230 219 204 179 153 131 121 121 115 108 109 118 125 124 122 116 109 104 103 102 104 107 107 109 113 118 122 121 121 124 131 131 130 132 134 136 138 143 146 145 144 135
264 266 259 245 214 176 144 127 119 117 110 106 118 126 127 128 124 117 114 111 105 98 95 100 104 108 108 108 110 116 122 128 129 123 125 128 133 140 147 152 150 148 140 141
239 234 237 204 166 151 136 125 121 116 114 118 120 120 119 115 116 120 122 120 116 108 100 101 109 114 109 106 111 116 120 123 123 124 125 130 147 147 148 145 145 148 146 151
182 147 134 127 135 137 132 126 124 121 118 123 122 119 117 117 119 118 113 103 94 99 112 116 122 113 116 120 127 124 126 131 130 131 136 144 146 143 144 146 149 153 157 162
126 118 123 121 112 112 119 124 125 127 129 131 130 127 123 120 120 119 116 107 101 109 118 125 121 117 117 124 141 129 131 130 131 134 140 142 143 146 148 153 158 164 167 169
120 121 124 120 115 112 112 115 119 123 125 126 126 124 122 119 116 110 100 102 113 123 131 124 114 103 114 142 138 129 128 129 132 136 140 144 148 152 156 164 169 170 170 173
117 121 123 121 116 113 113 115 121 122 122 122 121 122 117 112 114 115 109 108 116 120 115 101 100 113 149 168 137 134 132 135 140 145 149 155 160 164 165 169 171 171 174 182
113 118 117 115 117 117 115 113 110 110 113 113 111 113 117 117 111 102 104 106 101 111 102 101 115 140 202 150 128 124 123 131 147 155 158 164 165 167 173 177 177 182 189 199
118 117 117 117 116 115 115 116 115 116 115 110 111 113 109 104 108 110 114 117 125 129 118 121 139 182 177 126 126 127 133 129 125 144 155 165 180 179 183 191 195 202 212 219
113 112 112 113 113 120 123 121 117 114 113 112 109 107 107 110 115 120 124 128 130 133 129 135 147 178 148 129 126 127 131 140 164 192 193 200 196 196 205 218 222 227 229 234
112 113 115 114 113 112 111 111 112 111 111 113 113 112 115 119 121 124 127 131 136 137 133 139 144 145 134 130 130 141 157 160 172 193 196 201 209 217 218 229 247 248 249 248